| time (UTC) | temp F | wind direction | speed MPH | gust MPH | rain 1hr in | rain 24hr in | rain mn in | humidity % | barometer mb |
| 20260504160140 | 70 | 214 | 14.0 | 19.0 | 0.00 | 0.00 | 0.00 | 83 | 1016.0 |
| 20260504150649 | 68 | 195 | 11.0 | 18.0 | 0.00 | 0.00 | 0.00 | 84 | 1016.4 |
| 20260504141202 | 65 | 168 | 8.0 | 11.0 | 0.00 | 0.00 | 0.00 | 85 | 1016.2 |
| 20260504140644 | 65 | 180 | 8.0 | 11.0 | 0.00 | 0.00 | 0.00 | 85 | 1016.1 |
| 20260504140124 | 65 | 186 | 8.0 | 11.0 | 0.00 | 0.00 | 0.00 | 85 | 1016.1 |
| 20260504130707 | 64 | 180 | 7.0 | 10.0 | 0.00 | 0.00 | 0.00 | 85 | 1016.3 |
| 20260504130147 | 64 | 175 | 7.0 | 11.0 | 0.00 | 0.00 | 0.00 | 85 | 1016.3 |
| 20260504120219 | 64 | 172 | 9.0 | 11.0 | 0.00 | 0.00 | 0.00 | 84 | 1015.8 |
| 20260504110642 | 64 | 182 | 8.0 | 11.0 | 0.00 | 0.00 | 0.00 | 83 | 1015.8 |
| 20260504110141 | 64 | 169 | 8.0 | 11.0 | 0.00 | 0.00 | 0.00 | 83 | 1015.9 |
| 20260504100207 | 65 | 178 | 11.0 | 14.0 | 0.00 | 0.00 | 0.00 | 83 | 1016.1 |
| 20260504090139 | 65 | 184 | 10.0 | 15.0 | 0.00 | 0.00 | 0.00 | 82 | 1016.5 |
| 20260504081626 | 66 | 173 | 12.0 | 15.0 | 0.00 | 0.00 | 0.00 | 81 | 1016.5 |
| 20260504081129 | 66 | 172 | 12.0 | 16.0 | 0.00 | 0.00 | 0.00 | 80 | 1016.6 |
| 20260504080625 | 66 | 172 | 12.0 | 18.0 | 0.00 | 0.00 | 0.00 | 80 | 1016.5 |
| 20260504080126 | 66 | 178 | 13.0 | 18.0 | 0.00 | 0.00 | 0.00 | 80 | 1016.7 |
| 20260504070121 | 67 | 184 | 14.0 | 18.0 | 0.00 | 0.00 | 0.00 | 79 | 1017.5 |
| 20260504060121 | 68 | 191 | 11.0 | 16.0 | 0.00 | 0.00 | 0.00 | 74 | 1018.3 |
| 20260504050615 | 69 | 187 | 14.0 | 19.0 | 0.00 | 0.00 | 0.00 | 72 | 1018.4 |
| 20260504050127 | 69 | 161 | 15.0 | 19.0 | 0.00 | 0.00 | 0.00 | 73 | 1018.4 |
| 20260504045625 | 69 | 171 | 15.0 | 19.0 | 0.00 | 0.00 | 0.00 | 73 | 1018.6 |
| 20260504045132 | 69 | 172 | 14.0 | 19.0 | 0.00 | 0.00 | 0.00 | 71 | 1018.6 |
| 20260504044640 | 69 | 155 | 12.0 | 21.0 | 0.00 | 0.00 | 0.00 | 72 | 1018.7 |
| 20260504044219 | 69 | 169 | 14.0 | 21.0 | 0.00 | 0.00 | 0.00 | 71 | 1018.7 |
| 20260504043653 | 69 | 166 | 14.0 | 22.0 | 0.00 | 0.00 | 0.00 | 69 | 1018.7 |
| 20260504043132 | 69 | 148 | 14.0 | 22.0 | 0.00 | 0.00 | 0.00 | 70 | 1018.9 |
| 20260504042643 | 69 | 166 | 14.0 | 20.0 | 0.00 | 0.00 | 0.00 | 69 | 1018.7 |
| 20260504041711 | 69 | 175 | 15.0 | 22.0 | 0.00 | 0.00 | 0.00 | 68 | 1018.7 |
| 20260504040708 | 70 | 168 | 15.0 | 21.0 | 0.00 | 0.00 | 0.00 | 67 | 1018.9 |
| 20260504040113 | 70 | 168 | 15.0 | 20.0 | 0.00 | 0.00 | 0.00 | 67 | 1018.9 |
| 20260504035614 | 70 | 162 | 14.0 | 20.0 | 0.00 | 0.00 | 0.00 | 67 | 1019.0 |
| 20260504035212 | 70 | 150 | 14.0 | 20.0 | 0.00 | 0.00 | 0.00 | 67 | 1019.0 |
| 20260504034646 | 70 | 153 | 13.0 | 16.0 | 0.00 | 0.00 | 0.00 | 66 | 1019.0 |
| 20260504034146 | 70 | 161 | 14.0 | 19.0 | 0.00 | 0.00 | 0.00 | 66 | 1018.8 |
| 20260504033630 | 70 | 168 | 14.0 | 19.0 | 0.00 | 0.00 | 0.00 | 65 | 1018.7 |
| 20260504033211 | 70 | 159 | 15.0 | 18.0 | 0.00 | 0.00 | 0.00 | 65 | 1018.9 |
| 20260504032707 | 71 | 165 | 14.0 | 16.0 | 0.00 | 0.00 | 0.00 | 64 | 1018.7 |
| 20260504032202 | 71 | 164 | 13.0 | 18.0 | 0.00 | 0.00 | 0.00 | 64 | 1018.7 |
| 20260504031150 | 71 | 165 | 14.0 | 18.0 | 0.00 | 0.00 | 0.00 | 62 | 1018.5 |
| 20260504030625 | 72 | 170 | 13.0 | 15.0 | 0.00 | 0.00 | 0.00 | 63 | 1018.6 |
| 20260504030121 | 72 | 162 | 12.0 | 16.0 | 0.00 | 0.00 | 0.00 | 62 | 1018.6 |
| 20260504025618 | 72 | 180 | 12.0 | 16.0 | 0.00 | 0.00 | 0.00 | 61 | 1018.6 |
| 20260504025203 | 71 | 155 | 12.0 | 16.0 | 0.00 | 0.00 | 0.00 | 61 | 1018.5 |
| 20260504024658 | 71 | 143 | 8.0 | 11.0 | 0.00 | 0.00 | 0.00 | 59 | 1018.5 |
| 20260504024203 | 71 | 126 | 9.0 | 11.0 | 0.00 | 0.00 | 0.00 | 59 | 1018.4 |
| 20260504023111 | 72 | 127 | 5.0 | 7.0 | 0.00 | 0.00 | 0.00 | 56 | 1018.5 |
| 20260504022655 | 72 | 124 | 3.0 | 7.0 | 0.00 | 0.00 | 0.00 | 58 | 1018.4 |
| 20260504022147 | 73 | 180 | 5.0 | 6.0 | 0.00 | 0.00 | 0.00 | 59 | 1018.4 |
| 20260504021205 | 72 | 180 | 5.0 | 6.0 | 0.00 | 0.00 | 0.00 | 56 | 1018.4 |
| 20260504020703 | 73 | 188 | 5.0 | 6.0 | 0.00 | 0.00 | 0.00 | 57 | 1018.5 |
| 20260504015624 | 73 | 195 | 5.0 | 7.0 | 0.00 | 0.00 | 0.00 | 58 | 1018.3 |
| 20260504015144 | 73 | 182 | 5.0 | 7.0 | 0.00 | 0.00 | 0.00 | 58 | 1018.2 |
| 20260504014206 | 73 | 182 | 6.0 | 8.0 | 0.00 | 0.00 | 0.00 | 57 | 1018.2 |
| 20260504013645 | 74 | 190 | 6.0 | 8.0 | 0.00 | 0.00 | 0.00 | 57 | 1018.1 |
| 20260504013125 | 74 | 184 | 6.0 | 9.0 | 0.00 | 0.00 | 0.00 | 58 | 1018.1 |
| 20260504012621 | 74 | 181 | 7.0 | 11.0 | 0.00 | 0.00 | 0.00 | 54 | 1018.2 |
| 20260504012135 | 74 | 170 | 9.0 | 13.0 | 0.00 | 0.00 | 0.00 | 53 | 1018.2 |
| 20260504011720 | 74 | 168 | 9.0 | 13.0 | 0.00 | 0.00 | 0.00 | 55 | 1018.0 |
| 20260504011155 | 74 | 172 | 9.0 | 11.0 | 0.00 | 0.00 | 0.00 | 53 | 1018.1 |
| 20260504010653 | 74 | 178 | 8.0 | 11.0 | 0.00 | 0.00 | 0.00 | 55 | 1018.0 |
| 20260504010152 | 74 | 174 | 9.0 | 13.0 | 0.00 | 0.00 | 0.00 | 53 | 1018.0 |
| 20260504005648 | 74 | 167 | 11.0 | 13.0 | 0.00 | 0.00 | 0.00 | 53 | 1017.9 |
| 20260504005141 | 75 | 176 | 9.0 | 13.0 | 0.00 | 0.00 | 0.00 | 53 | 1017.9 |
| 20260504004615 | 75 | 153 | 10.0 | 13.0 | 0.00 | 0.00 | 0.00 | 55 | 1017.8 |
| 20260504004218 | 75 | 168 | 9.0 | 12.0 | 0.00 | 0.00 | 0.00 | 54 | 1017.9 |
| 20260504003712 | 75 | 172 | 11.0 | 13.0 | 0.00 | 0.00 | 0.00 | 54 | 1018.0 |
| 20260504003145 | 75 | 169 | 10.0 | 13.0 | 0.00 | 0.00 | 0.00 | 54 | 1018.0 |
| 20260504002640 | 75 | 177 | 8.0 | 14.0 | 0.00 | 0.00 | 0.00 | 53 | 1018.2 |
| 20260504002136 | 75 | 184 | 11.0 | 14.0 | 0.00 | 0.00 | 0.00 | 51 | 1018.2 |
| 20260504001652 | 75 | 178 | 10.0 | 13.0 | 0.00 | 0.00 | 0.00 | 52 | 1018.3 |
| 20260504001203 | 75 | 174 | 10.0 | 14.0 | 0.00 | 0.00 | 0.00 | 52 | 1018.4 |
| 20260504000656 | 75 | 184 | 11.0 | 15.0 | 0.00 | 0.00 | 0.00 | 52 | 1018.4 |
| 20260504000209 | 75 | 167 | 10.0 | 15.0 | 0.00 | 0.00 | 0.00 | 51 | 1018.6 |
| 20260503235703 | 75 | 171 | 10.0 | 14.0 | 0.00 | 0.00 | 0.00 | 50 | 1018.6 |
| 20260503235156 | 75 | 179 | 11.0 | 13.0 | 0.00 | 0.00 | 0.00 | 49 | 1018.6 |
| 20260503234643 | 75 | 179 | 11.0 | 15.0 | 0.00 | 0.00 | 0.00 | 53 | 1018.5 |
| 20260503233710 | 75 | 202 | 13.0 | 18.0 | 0.00 | 0.00 | 0.00 | 52 | 1018.6 |
| 20260503233204 | 75 | 184 | 10.0 | 15.0 | 0.00 | 0.00 | 0.00 | 53 | 1018.8 |
| 20260503232659 | 75 | 163 | 11.0 | 15.0 | 0.00 | 0.00 | 0.00 | 51 | 1018.7 |
| 20260503232146 | 75 | 182 | 10.0 | 16.0 | 0.00 | 0.00 | 0.00 | 51 | 1018.8 |
| 20260503231209 | 75 | 174 | 10.0 | 14.0 | 0.00 | 0.00 | 0.00 | 52 | 1018.6 |
| 20260503230701 | 75 | 168 | 9.0 | 14.0 | 0.00 | 0.00 | 0.00 | 49 | 1018.7 |
| 20260503230156 | 75 | 191 | 11.0 | 18.0 | 0.00 | 0.00 | 0.00 | 52 | 1018.6 |
| 20260503225705 | 75 | 184 | 10.0 | 18.0 | 0.00 | 0.00 | 0.00 | 51 | 1018.6 |
| 20260503225158 | 75 | 195 | 8.0 | 14.0 | 0.00 | 0.00 | 0.00 | 54 | 1018.6 |
| 20260503224637 | 75 | 166 | 8.0 | 16.0 | 0.00 | 0.00 | 0.00 | 52 | 1018.7 |
| 20260503224222 | 75 | 172 | 12.0 | 19.0 | 0.00 | 0.00 | 0.00 | 51 | 1018.6 |
| 20260503223658 | 75 | 180 | 12.0 | 19.0 | 0.00 | 0.00 | 0.00 | 53 | 1018.8 |
| 20260503223200 | 75 | 163 | 10.0 | 18.0 | 0.00 | 0.00 | 0.00 | 51 | 1018.8 |
| 20260503222654 | 75 | 166 | 12.0 | 18.0 | 0.00 | 0.00 | 0.00 | 53 | 1018.9 |
| 20260503222146 | 75 | 181 | 9.0 | 19.0 | 0.00 | 0.00 | 0.00 | 51 | 1018.9 |
| 20260503221645 | 75 | 192 | 11.0 | 19.0 | 0.00 | 0.00 | 0.00 | 51 | 1019.1 |
| 20260503221137 | 75 | 175 | 8.0 | 20.0 | 0.00 | 0.00 | 0.00 | 52 | 1019.2 |
| 20260503220632 | 75 | 190 | 10.0 | 20.0 | 0.00 | 0.00 | 0.00 | 50 | 1019.2 |
| 20260503220224 | 75 | 193 | 9.0 | 16.0 | 0.00 | 0.00 | 0.00 | 51 | 1019.3 |
| 20260503215704 | 75 | 201 | 11.0 | 16.0 | 0.00 | 0.00 | 0.00 | 52 | 1019.4 |
| 20260503215202 | 75 | 177 | 7.0 | 13.0 | 0.00 | 0.00 | 0.00 | 50 | 1019.5 |
| 20260503214701 | 75 | 192 | 10.0 | 18.0 | 0.00 | 0.00 | 0.00 | 49 | 1019.5 |
| 20260503214200 | 75 | 187 | 11.0 | 18.0 | 0.00 | 0.00 | 0.00 | 49 | 1019.6 |
| 20260503213656 | 75 | 186 | 10.0 | 14.0 | 0.00 | 0.00 | 0.00 | 51 | 1019.6 |
| 20260503213203 | 75 | 158 | 7.0 | 14.0 | 0.00 | 0.00 | 0.00 | 50 | 1019.6 |
| 20260503212612 | 75 | 182 | 12.0 | 14.0 | 0.00 | 0.00 | 0.00 | 52 | 1019.7 |
| 20260503212157 | 75 | 180 | 8.0 | 16.0 | 0.00 | 0.00 | 0.00 | 51 | 1019.7 |
| 20260503211700 | 75 | 198 | 11.0 | 16.0 | 0.00 | 0.00 | 0.00 | 52 | 1019.9 |
| 20260503211213 | 75 | 197 | 8.0 | 12.0 | 0.00 | 0.00 | 0.00 | 52 | 1020.1 |
| 20260503210651 | 75 | 157 | 9.0 | 13.0 | 0.00 | 0.00 | 0.00 | 53 | 1020.4 |
| 20260503210150 | 74 | 208 | 9.0 | 14.0 | 0.00 | 0.00 | 0.00 | 51 | 1020.4 |
| 20260503205648 | 74 | 173 | 12.0 | 14.0 | 0.00 | 0.00 | 0.00 | 53 | 1020.6 |
| 20260503205127 | 74 | 180 | 6.0 | 16.0 | 0.00 | 0.00 | 0.00 | 50 | 1020.8 |
| 20260503204620 | 74 | 139 | 12.0 | 16.0 | 0.00 | 0.00 | 0.00 | 50 | 1020.7 |
| 20260503204113 | 74 | 153 | 10.0 | 16.0 | 0.00 | 0.00 | 0.00 | 48 | 1020.7 |
| 20260503203714 | 74 | 161 | 7.0 | 13.0 | 0.00 | 0.00 | 0.00 | 51 | 1020.9 |
| 20260503203129 | 74 | 198 | 8.0 | 14.0 | 0.00 | 0.00 | 0.00 | 52 | 1021.0 |
| 20260503202626 | 74 | 184 | 5.0 | 12.0 | 0.00 | 0.00 | 0.00 | 51 | 1021.0 |
| 20260503202228 | 74 | 206 | 2.0 | 8.0 | 0.00 | 0.00 | 0.00 | 52 | 1021.1 |
| 20260503201705 | 74 | 169 | 3.0 | 12.0 | 0.00 | 0.00 | 0.00 | 52 | 1021.4 |
| 20260503201144 | 74 | 161 | 8.0 | 15.0 | 0.00 | 0.00 | 0.00 | 53 | 1021.5 |
| 20260503200640 | 74 | 164 | 11.0 | 15.0 | 0.00 | 0.00 | 0.00 | 51 | 1021.4 |
| 20260503195727 | 74 | 159 | 11.0 | 16.0 | 0.00 | 0.00 | 0.00 | 50 | 1021.5 |
| 20260503195123 | 73 | 165 | 10.0 | 14.0 | 0.00 | 0.00 | 0.00 | 53 | 1021.8 |
| 20260503194624 | 73 | 226 | 10.0 | 14.0 | 0.00 | 0.00 | 0.00 | 51 | 1021.7 |
| 20260503194210 | 73 | 213 | 9.0 | 14.0 | 0.00 | 0.00 | 0.00 | 52 | 1021.8 |
| 20260503193620 | 73 | 168 | 10.0 | 16.0 | 0.00 | 0.00 | 0.00 | 51 | 1021.8 |
| 20260503193202 | 73 | 156 | 12.0 | 16.0 | 0.00 | 0.00 | 0.00 | 51 | 1021.8 |
| 20260503192657 | 73 | 209 | 5.0 | 18.0 | 0.00 | 0.00 | 0.00 | 50 | 1021.7 |
| 20260503192157 | 73 | 195 | 10.0 | 19.0 | 0.00 | 0.00 | 0.00 | 52 | 1022.0 |
| 20260503191652 | 73 | 193 | 12.0 | 19.0 | 0.00 | 0.00 | 0.00 | 54 | 1021.9 |
| 20260503191146 | 73 | 202 | 6.0 | 13.0 | 0.00 | 0.00 | 0.00 | 52 | 1022.1 |
| 20260503190637 | 73 | 195 | 7.0 | 16.0 | 0.00 | 0.00 | 0.00 | 56 | 1022.0 |
| 20260503190153 | 73 | 140 | 11.0 | 16.0 | 0.00 | 0.00 | 0.00 | 54 | 1022.2 |
| 20260503185647 | 73 | 168 | 9.0 | 14.0 | 0.00 | 0.00 | 0.00 | 54 | 1022.0 |
| 20260503185144 | 73 | 194 | 11.0 | 14.0 | 0.00 | 0.00 | 0.00 | 52 | 1022.2 |
| 20260503184657 | 72 | 178 | 8.0 | 16.0 | 0.00 | 0.00 | 0.00 | 53 | 1022.5 |
| 20260503184157 | 72 | 202 | 13.0 | 16.0 | 0.00 | 0.00 | 0.00 | 51 | 1022.6 |
| 20260503183655 | 72 | 177 | 12.0 | 16.0 | 0.00 | 0.00 | 0.00 | 56 | 1022.7 |
| 20260503183156 | 72 | 177 | 7.0 | 20.0 | 0.00 | 0.00 | 0.00 | 54 | 1022.7 |
| 20260503182717 | 72 | 195 | 12.0 | 19.0 | 0.00 | 0.00 | 0.00 | 56 | 1022.8 |
| 20260503182154 | 72 | 158 | 12.0 | 19.0 | 0.00 | 0.00 | 0.00 | 54 | 1022.9 |
| 20260503181649 | 72 | 190 | 9.0 | 14.0 | 0.00 | 0.00 | 0.00 | 55 | 1022.9 |
| 20260503181145 | 72 | 193 | 11.0 | 15.0 | 0.00 | 0.00 | 0.00 | 54 | 1023.0 |
| 20260503180700 | 72 | 149 | 7.0 | 18.0 | 0.00 | 0.00 | 0.00 | 54 | 1023.0 |
| 20260503180200 | 72 | 171 | 12.0 | 18.0 | 0.00 | 0.00 | 0.00 | 56 | 1023.1 |
| 20260503175700 | 72 | 169 | 11.0 | 16.0 | 0.00 | 0.00 | 0.00 | 55 | 1023.2 |
| 20260503175134 | 72 | 176 | 9.0 | 18.0 | 0.00 | 0.00 | 0.00 | 54 | 1023.3 |
| 20260503174648 | 72 | 197 | 12.0 | 18.0 | 0.00 | 0.00 | 0.00 | 53 | 1023.2 |
| 20260503174143 | 72 | 197 | 10.0 | 14.0 | 0.00 | 0.00 | 0.00 | 55 | 1023.3 |
| 20260503173641 | 72 | 163 | 9.0 | 12.0 | 0.00 | 0.00 | 0.00 | 56 | 1023.6 |
| 20260503173138 | 72 | 156 | 7.0 | 13.0 | 0.00 | 0.00 | 0.00 | 54 | 1023.7 |
| 20260503172632 | 72 | 168 | 9.0 | 16.0 | 0.00 | 0.00 | 0.00 | 55 | 1023.8 |
| 20260503172131 | 72 | 149 | 9.0 | 15.0 | 0.00 | 0.00 | 0.00 | 56 | 1023.7 |
| 20260503171630 | 71 | 163 | 10.0 | 15.0 | 0.00 | 0.00 | 0.00 | 57 | 1023.9 |
| 20260503171128 | 71 | 199 | 9.0 | 19.0 | 0.00 | 0.00 | 0.00 | 59 | 1023.9 |
| 20260503170623 | 71 | 190 | 14.0 | 19.0 | 0.00 | 0.00 | 0.00 | 57 | 1023.8 |
| 20260503170133 | 71 | 174 | 10.0 | 16.0 | 0.00 | 0.00 | 0.00 | 59 | 1023.8 |